Dewpoint
44 45 46 46 46 46 47 47 48 47 46 43 40 42 40 38 32 38 39 46 45 39 36 37 34 36 35 35 33 33 33 31 31 27 27 25 25 26 22 25 25 25 24 21 18 21 24 24 22 23 25 30 44 36 28 25 25 23 25 21 28 48 30 19 11 15 16 18 19 21 19 17 14 18 24 21 20 22 27 22 25 19 21 15 15 15 22
44 45 45 46 46 46 47 47 48 47 46 44 43 38 37 38 38 36 36 43 44 37 31 31 29 33 34 35 31 28 33 27 26 28 26 26 27 26 27 24 21 25 25 23 19 23 23 20 22 24 26 25 28 25 31 30 37 29 28 33 39 22 26 24 16 13 11 14 15 13 15 17 19 18 22 23 24 24 28 27 27 20 22 19 15 10 20
44 45 45 46 47 46 47 47 47 46 47 45 41 37 36 38 38 42 43 42 41 37 36 35 31 34 34 33 27 27 28 27 25 26 25 26 25 27 26 26 28 27 29 28 27 26 22 26 23 24 25 24 26 22 24 28 37 43 39 39 31 28 27 26 15 12 10 9 9 12 16 14 20 21 22 22 19 26 26 15 19 15 23 19 16 15 28
44 44 45 46 46 46 46 47 47 46 46 45 40 38 37 34 29 34 40 43 42 39 41 38 36 33 33 29 26 27 27 27 26 26 25 26 26 23 22 22 27 28 28 29 28 26 25 27 28 24 25 23 23 24 22 32 40 42 43 40 34 29 30 26 26 17 14 16 15 20 24 23 14 15 22 25 26 23 27 25 17 14 21 20 21 26 29
44 44 45 46 46 46 46 47 47 46 45 45 39 37 38 35 32 31 30 37 40 37 38 35 34 33 33 26 27 27 25 24 25 26 27 24 26 24 20 19 28 27 30 31 28 27 26 25 26 24 24 23 25 27 19 18 30 42 38 39 33 36 27 28 27 23 19 18 19 24 22 21 24 25 26 26 28 30 30 18 16 26 20 15 26 31 31
44 44 45 46 46 46 47 47 47 45 45 45 41 34 34 28 28 34 35 29 30 32 33 36 34 33 29 28 29 27 24 22 24 23 25 25 22 27 24 19 18 20 26 30 27 26 27 26 26 26 24 24 26 17 19 18 26 35 28 34 37 33 27 29 29 24 23 24 24 24 24 24 25 25 28 28 28 31 27 26 26 27 19 17 29 31 30
43 44 45 45 46 46 46 47 47 45 44 44 38 34 34 32 32 36 36 28 32 36 35 36 36 34 34 30 30 29 27 23 20 21 26 23 22 22 23 22 19 19 24 28 25 25 25 23 25 26 27 27 27 27 26 23 20 23 32 30 37 34 28 29 29 28 26 26 26 26 24 25 25 25 25 28 30 29 29 29 29 29 30 30 31 31 30
43 44 45 45 46 46 46 47 47 45 43 41 37 35 33 32 30 31 36 34 30 31 36 36 35 32 35 30 32 29 28 27 24 20 23 26 24 23 26 21 21 19 18 22 22 22 25 25 23 26 27 30 27 23 24 21 24 21 31 28 30 33 26 32 31 29 27 28 29 32 29 28 27 25 25 25 27 27 28 29 29 30 29 31 32 31 30
43 44 44 45 46 46 46 47 47 45 43 38 37 35 36 36 35 33 30 25 27 31 28 33 33 29 31 31 32 31 29 28 28 21 22 23 24 24 24 23 25 19 20 23 22 22 23 23 25 26 24 23 24 23 25 22 26 22 26 30 33 35 28 30 29 26 26 25 28 28 32 29 28 29 28 28 28 27 28 27 28 29 28 29 30 29 28
43 43 44 45 46 47 46 46 47 45 42 38 37 34 37 37 36 35 34 25 27 24 26 27 33 26 31 33 32 31 30 31 30 27 24 23 23 25 24 27 24 21 25 23 23 24 24 24 23 22 23 24 24 23 23 23 24 26 22 27 26 30 27 25 25 24 23 23 27 27 27 26 23 26 29 28 27 27 26 25 28 29 30 28 27 27 28
43 43 44 45 46 47 47 46 47 46 40 38 36 35 37 36 36 35 30 26 25 23 25 23 25 26 30 27 31 34 32 33 31 27 26 24 23 24 26 27 26 19 21 22 24 25 26 26 26 24 22 23 23 26 27 24 24 21 22 26 28 29 28 25 27 22 21 24 26 27 24 18 18 28 28 28 28 28 27 25 26 27 29 26 27 27 27
43 43 44 44 45 46 47 47 47 47 42 40 39 37 37 38 33 30 26 24 21 25 23 21 24 26 25 24 27 26 26 27 29 30 27 28 24 27 25 25 29 24 22 27 28 30 27 27 26 25 27 27 22 22 22 24 26 26 29 23 28 28 27 22 23 20 20 23 23 20 16 18 27 27 29 30 28 25 24 24 25 27 28 28 27 26 26
43 43 43 44 45 46 47 47 47 47 46 41 39 36 38 40 34 29 28 26 20 22 22 21 23 23 24 25 25 25 26 26 27 32 28 28 27 27 26 25 25 23 25 26 27 27 23 26 27 31 23 25 32 28 23 22 23 25 25 25 29 25 23 21 19 18 19 18 16 13 14 23 26 26 27 28 25 25 25 23 23 24 25 28 26 26 25
42 42 43 44 45 46 46 47 47 47 46 43 38 36 38 38 37 35 29 24 21 23 24 24 22 24 26 23 25 24 26 26 27 30 27 29 28 26 26 25 24 27 27 28 28 24 21 25 21 24 22 22 27 28 26 21 23 25 25 24 28 32 27 25 18 22 18 18 15 16 23 23 23 23 23 25 23 24 24 20 20 25 25 26 24 24 24
42 42 43 44 45 46 46 47 47 47 47 43 40 38 37 38 38 35 29 29 20 23 23 19 21 24 25 22 24 24 24 25 26 27 26 29 29 26 26 25 27 27 29 27 26 27 24 22 18 17 16 19 18 22 20 23 26 25 27 26 25 28 21 24 22 18 19 18 17 19 18 17 21 24 27 28 31 28 27 23 19 25 24 26 25 24 25
42 42 43 43 45 45 46 47 47 47 47 44 39 37 37 39 38 37 35 29 26 19 20 24 24 25 25 21 24 24 24 23 25 26 26 27 24 25 25 26 29 30 25 26 28 27 23 19 15 14 12 16 14 14 16 18 18 20 26 26 27 25 27 26 22 18 18 17 17 16 16 18 23 26 25 27 26 28 29 24 17 21 23 23 24 23 24
42 42 43 44 44 45 46 46 47 47 47 44 38 37 35 39 38 38 31 27 28 19 25 22 29 29 24 24 25 25 25 23 26 22 22 23 24 24 25 26 32 28 24 30 26 25 21 21 21 16 16 17 15 17 17 18 20 18 20 25 26 26 23 23 18 18 16 17 16 15 15 19 22 24 25 24 26 30 26 17 18 22 24 23 24 23 24
42 42 42 43 44 45 45 46 47 47 47 45 39 37 35 39 38 37 32 28 23 21 24 24 24 22 20 23 22 23 28 28 26 26 25 24 23 22 23 26 23 24 29 26 26 21 19 19 17 16 15 16 18 16 16 19 18 18 18 21 20 22 22 22 19 18 19 19 18 20 21 24 26 24 25 25 29 26 18 15 18 22 24 24 25 24 25
42 42 42 43 43 44 45 46 47 47 47 46 40 36 36 38 39 37 31 31 28 21 21 23 23 26 24 28 26 27 25 26 26 22 22 23 22 24 25 26 26 21 22 21 24 19 16 16 21 18 14 17 19 15 17 16 15 17 20 18 19 18 21 20 20 18 16 18 18 19 21 25 25 26 27 28 27 19 18 19 25 25 24 26 26 26 26
42 42 42 43 43 44 45 46 47 47 47 46 39 34 36 38 39 38 34 27 29 24 25 24 23 22 23 23 23 24 24 26 26 24 23 22 26 25 23 19 24 23 24 24 19 21 15 14 16 18 15 15 19 23 15 15 16 15 17 19 16 17 20 19 17 18 17 17 17 16 15 21 27 28 23 27 23 20 21 23 26 26 26 26 27 28 27
42 42 42 42 43 43 44 45 46 47 47 47 39 37 37 38 40 40 38 33 29 20 23 26 23 20 24 27 27 27 27 23 24 21 23 25 27 25 18 17 22 24 21 21 15 17 18 15 17 17 19 16 17 17 15 17 14 17 17 17 18 21 19 19 20 24 17 16 16 16 21 25 29 27 20 23 24 23 26 26 25 27 28 28 28 29 29
41 41 42 43 43 43 44 45 46 47 47 46 40 36 33 36 39 39 39 36 28 26 25 24 23 29 30 26 29 32 25 25 27 26 24 23 29 26 25 27 25 25 24 23 20 21 21 20 20 17 15 16 19 14 18 13 12 14 20 21 16 24 20 23 19 27 21 19 20 23 25 28 29 28 26 28 28 30 33 29 26 26 27 30 28 30 31
41 41 42 43 44 43 44 45 46 46 47 46 39 34 32 34 37 39 36 30 30 35 34 28 29 29 34 34 31 28 27 29 35 37 35 28 23 26 26 26 25 28 28 26 21 21 21 19 16 20 19 18 15 14 16 14 12 16 17 20 23 26 27 28 25 24 26 27 29 31 29 31 30 32 33 30 30 31 31 29 28 31 32 32 32 32 32
41 41 42 43 43 45 44 45 45 46 46 46 40 35 34 36 37 37 35 32 30 22 29 30 30 26 27 27 28 27 24 27 35 32 33 36 23 20 26 28 27 30 30 30 28 22 23 19 21 21 17 20 19 13 11 12 16 16 17 14 17 21 21 25 23 25 20 19 27 28 28 30 33 33 33 33 34 35 36 36 34 35 33 32 32 32 32
40 41 42 43 43 44 45 45 45 46 46 46 43 39 39 36 37 35 35 25 29 27 18 23 25 26 24 25 26 23 20 27 37 35 34 35 32 25 21 27 30 27 25 30 29 27 20 19 20 19 16 21 19 14 19 16 15 18 13 15 17 19 24 23 23 21 17 21 26 28 28 29 29 29 29 30 30 31 32 32 32 32 33 32 32 32 30
41 41 42 43 44 44 45 45 45 45 46 45 42 35 35 35 37 38 38 34 30 27 20 18 27 34 27 24 23 23 25 27 29 34 35 30 28 35 34 31 28 32 32 30 30 25 20 18 19 19 17 18 23 16 16 18 18 19 17 16 20 18 22 18 22 21 23 25 26 25 26 26 26 27 29 29 30 30 31 32 32 32 31 30 30 31 30
41 41 42 42 43 44 45 45 45 45 45 44 40 38 36 37 38 38 36 35 29 22 24 19 24 25 25 27 26 28 23 30 30 29 28 27 28 30 33 34 35 31 29 28 27 23 20 18 19 18 22 19 23 20 20 19 18 17 16 20 24 19 16 19 22 20 19 19 23 25 19 18 23 26 28 30 31 32 32 32 31 31 30 30 29 29 30
41 41 42 43 43 44 45 45 45 45 45 43 40 39 37 38 39 40 38 38 32 22 19 19 28 30 28 26 25 24 24 29 27 29 25 26 29 32 31 29 31 33 28 28 19 20 20 17 17 19 21 24 18 15 22 21 22 19 19 19 23 18 20 19 17 18 17 21 24 27 25 23 25 28 29 32 32 32 32 32 31 31 30 30 30 29 28
41 41 42 43 44 44 45 45 45 45 45 42 38 40 39 37 39 41 41 38 36 32 26 28 32 28 20 24 26 24 26 31 31 29 29 26 29 33 32 30 31 30 28 25 22 20 17 16 19 18 21 24 18 13 16 12 13 12 17 23 25 25 25 22 22 24 24 25 26 27 25 22 25 29 31 31 33 33 33 32 31 31 30 30 29 28 27
41 41 42 43 44 45 45 45 45 45 45 38 38 33 30 35 38 41 42 41 38 36 22 19 21 20 28 27 30 27 25 30 29 33 31 28 29 28 27 33 32 32 29 22 18 11 17 17 18 24 26 30 18 13 11 11 16 17 23 25 26 27 27 28 26 24 20 26 27 28 29 29 30 31 32 34 35 34 32 31 31 30 30 30 28 28 29
41 41 42 43 44 45 45 45 45 46 44 35 33 25 23 23 31 39 42 41 38 37 23 22 21 25 22 30 28 25 25 28 30 30 31 29 28 27 26 31 28 30 26 19 19 16 17 16 16 20 25 29 20 11 10 17 12 14 22 23 26 24 25 24 27 28 29 29 28 30 31 32 33 31 31 33 34 33 32 32 33 33 32 31 29 29 29
42 42 43 44 44 44 45 45 46 45 43 37 35 32 31 34 37 38 41 42 39 38 24 18 19 21 23 26 33 28 27 30 28 29 29 30 26 27 27 24 25 31 28 18 19 15 13 16 18 23 21 26 24 17 16 14 10 12 23 26 27 27 27 28 29 29 29 30 29 29 29 30 31 28 27 32 33 32 31 29 31 32 34 33 30 30 29
42 43 43 43 44 45 45 45 46 46 43 42 42 44 43 43 44 45 45 41 39 31 30 22 18 22 21 21 27 26 27 30 30 27 24 29 25 27 24 30 29 26 27 21 19 16 19 16 18 14 17 25 16 13 12 14 15 21 24 26 26 27 28 29 29 29 29 29 29 23 25 28 30 31 31 32 32 31 30 29 29 30 31 30 29 27 26
42 43 43 44 44 44 45 46 46 45 39 38 36 36 39 42 44 42 39 39 36 32 24 21 18 17 19 26 21 26 27 21 22 24 17 29 27 24 18 25 26 17 21 20 18 16 18 21 16 15 21 18 20 12 10 14 22 22 22 22 26 28 29 28 28 28 28 29 29 28 28 29 32 31 31 30 30 32 32 30 30 29 28 26 24 25 26
43 43 43 43 44 44 45 43 38 39 35 37 37 39 39 44 44 44 39 36 24 17 23 23 20 14 17 18 14 23 26 21 21 22 18 23 29 21 23 16 19 18 18 24 17 18 15 18 20 16 13 17 15 11 13 13 17 20 22 25 27 28 27 27 27 28 29 31 30 31 31 31 30 29 29 29 30 31 31 31 30 28 22 19 22 24 26
43 43 43 43 43 44 41 40 39 37 36 35 37 37 42 45 43 40 39 38 30 24 18 20 18 14 15 11 10 17 24 22 25 25 21 25 20 24 22 21 11 17 24 20 12 19 12 22 20 8 12 10 12 17 20 21 20 22 23 25 27 27 27 27 28 29 30 31 31 31 31 30 29 29 28 29 29 30 30 30 31 29 27 25 22 24 26
43 42 43 42 39 40 35 34 37 37 36 37 39 43 43 42 41 43 39 38 38 34 31 19 15 17 18 17 17 22 24 16 22 21 23 20 17 22 20 18 14 22 14 14 13 13 18 26 14 10 11 10 15 21 23 23 22 21 23 26 28 27 28 28 31 30 30 30 31 30 30 29 29 28 28 28 28 30 29 29 30 29 26 26 25 24 23
41 42 38 38 35 29 30 29 34 37 42 42 42 38 36 35 26 27 29 27 31 36 27 27 17 24 24 21 15 23 23 18 23 17 19 20 18 15 18 16 17 20 9 8 11 20 16 13 11 10 12 18 21 21 22 22 24 26 25 26 28 28 29 31 31 29 29 28 28 29 28 28 29 28 28 27 28 28 29 29 29 29 28 28 28 28 27
37 36 33 31 32 29 30 35 38 42 41 40 39 31 26 26 24 23 26 27 26 26 27 26 22 26 23 21 22 30 23 20 17 20 16 23 17 16 16 11 12 15 8 9 12 18 8 8 5 6 9 19 19 16 24 27 27 26 26 26 29 29 30 32 31 30 28 26 26 30 29 28 29 29 29 29 29 30 29 29 29 30 30 30 30 30 28
37 34 30 28 27 30 36 38 41 39 38 28 25 24 24 24 21 19 21 20 19 19 24 20 27 27 26 23 22 19 29 23 17 16 16 18 24 14 13 13 13 11 5 5 10 19 10 5 4 5 7 11 12 21 23 26 28 29 28 28 29 30 31 32 32 32 32 32 31 31 32 31 31 30 30 30 30 28 29 29 30 30 30 30 31 30 29
36 34 33 30 34 36 38 40 38 33 29 26 23 21 19 17 19 21 17 16 15 16 24 25 23 22 25 25 23 19 28 30 26 24 21 16 22 23 14 11 13 11 6 5 12 13 8 6 3 6 9 13 15 18 22 26 29 30 29 30 30 31 31 31 32 31 31 31 31 30 30 30 30 30 31 31 31 30 29 29 29 30 30 30 30 30 31
38 37 37 38 39 39 39 34 26 26 24 22 19 17 17 19 19 20 16 15 15 14 21 23 18 20 21 23 24 26 25 29 27 21 16 14 21 15 11 11 12 8 5 9 16 8 9 5 3 6 12 17 21 21 23 27 29 29 30 30 31 31 31 32 31 30 30 32 32 31 30 30 31 30 31 31 30 30 30 30 30 30 30 29 29 29 30
42 42 41 38 36 33 32 24 26 23 16 16 12 14 15 16 17 15 17 18 19 21 22 24 23 27 24 25 23 24 24 29 22 19 17 15 20 18 11 9 8 6 10 17 10 7 7 4 3 12 17 20 22 21 22 24 27 29 30 31 32 32 32 32 32 32 32 31 32 31 31 31 31 31 31 30 30 29 29 29 30 30 29 28 28 29 29
40 40 35 30 27 26 25 15 24 20 17 13 12 12 12 15 17 15 17 20 23 22 25 23 23 22 19 26 21 22 24 24 27 20 20 19 16 13 9 8 9 14 17 9 8 8 9 5 10 13 17 21 23 22 23 25 27 28 29 30 30 31 31 31 31 31 31 31 30 30 31 31 31 30 29 30 30 30 30 30 30 29 28 27 26 26 25
31 25 22 19 20 22 19 11 17 16 13 15 15 10 13 14 15 14 19 22 24 22 26 26 26 23 21 26 25 25 24 18 24 20 19 18 16 12 12 12 12 11 11 9 4 5 8 10 16 17 19 20 22 23 23 24 26 27 29 30 30 31 31 31 31 32 32 32 31 31 30 31 30 30 30 30 30 30 30 30 30 28 27 26 25 24 24
26 25 22 13 12 17 13 10 13 16 17 18 16 18 18 20 21 21 25 26 25 26 26 26 27 27 22 25 21 20 23 23 20 21 19 15 14 11 13 13 13 11 8 -1 5 8 10 15 15 17 21 21 24 24 22 23 24 26 28 28 31 31 31 32 32 32 32 32 32 31 31 30 30 30 30 30 30 29 29 29 29 28 28 25 24 23 23
27 25 20 17 13 17 17 12 15 16 20 21 23 23 23 23 24 24 25 26 26 27 27 28 27 25 22 21 21 22 21 20 19 21 18 16 14 15 18 13 10 6 7 7 5 6 10 16 19 24 25 25 25 24 24 25 26 26 27 29 30 31 32 31 31 31 31 31 31 31 31 31 31 30 30 30 30 30 30 30 30 30 28 26 25 24 24
25 26 19 14 12 17 13 17 21 23 24 23 23 24 24 25 25 25 28 29 28 29 28 28 23 24 23 25 23 20 19 20 18 19 18 17 19 17 13 13 10 8 7 7 11 11 17 18 22 25 26 24 24 24 25 27 27 28 28 28 29 31 31 31 31 31 31 30 30 31 31 31 31 30 30 31 31 31 31 30 30 29 28 26 24 23 23
28 24 19 17 17 19 18 22 23 20 23 24 24 25 25 24 24 25 26 27 28 27 27 26 23 21 20 21 19 18 19 20 17 16 21 19 16 14 14 13 9 11 13 12 16 18 19 22 25 26 25 25 26 26 27 26 27 27 28 28 28 29 30 30 31 31 31 30 30 30 30 30 30 30 30 30 30 30 31 30 29 28 27 26 24 23 22
26 24 24 19 21 18 20 23 22 21 21 23 23 23 26 24 24 26 27 27 28 28 29 28 29 22 22 22 19 19 18 18 19 21 18 17 17 15 13 13 11 13 14 15 17 20 22 24 23 24 25 25 26 27 27 28 26 26 27 28 28 28 29 30 30 31 31 30 31 31 30 30 29 29 30 30 30 31 29 28 27 26 26 26 24 23 22
31 28 25 24 21 19 20 16 16 16 19 22 23 24 25 26 27 26 29 30 28 27 24 21 24 24 23 22 19 16 18 20 20 18 17 16 12 14 14 14 15 15 19 23 23 24 26 25 25 24 25 25 26 28 28 28 27 27 26 25 26 27 28 29 29 30 30 31 31 28 30 30 30 30 31 30 29 28 28 27 26 26 25 25 25 23 22
29 25 24 25 27 25 24 24 24 23 24 25 25 26 26 25 27 28 29 27 26 23 21 20 23 22 22 21 22 22 24 21 19 17 16 16 14 15 13 15 18 23 24 24 25 25 26 27 27 26 26 25 26 27 28 28 28 28 27 26 25 24 25 27 28 29 30 30 30 31 31 31 31 31 30 29 29 28 28 28 28 26 26 24 24 24 22